TimeCDT,TemperatureF,Dew PointF,Humidity,Sea Level PressureIn,VisibilityMPH,Wind Direction,Wind SpeedMPH,Gust SpeedMPH,PrecipitationIn,Events,Conditions,WindDirDegrees,DateUTC
12:53 AM,59.0,55.0,87,29.84,10.0,South,3.5,-,N/A,,Clear,180,2012-10-17 05:53:00
1:53 AM,57.9,54.0,87,29.83,10.0,South,5.8,-,N/A,,Clear,180,2012-10-17 06:53:00
2:53 AM,57.9,53.1,84,29.83,10.0,South,6.9,-,N/A,,Clear,180,2012-10-17 07:53:00
3:53 AM,57.9,53.1,84,29.82,10.0,South,8.1,-,N/A,,Clear,170,2012-10-17 08:53:00
4:53 AM,57.0,52.0,83,29.82,10.0,SSE,8.1,-,N/A,,Clear,160,2012-10-17 09:53:00
5:53 AM,57.9,52.0,81,29.82,10.0,South,6.9,-,N/A,,Clear,190,2012-10-17 10:53:00
6:53 AM,57.0,52.0,83,29.82,10.0,South,6.9,-,N/A,,Scattered Clouds,180,2012-10-17 11:53:00
7:53 AM,61.0,52.0,72,29.80,10.0,South,11.5,-,N/A,,Clear,170,2012-10-17 12:53:00
8:53 AM,66.0,53.1,63,29.80,10.0,South,11.5,-,N/A,,Clear,170,2012-10-17 13:53:00
9:53 AM,70.0,55.0,59,29.79,10.0,South,15.0,-,N/A,,Clear,180,2012-10-17 14:53:00
10:53 AM,73.9,59.0,59,29.78,10.0,South,16.1,-,N/A,,Clear,170,2012-10-17 15:53:00
11:53 AM,77.0,60.1,56,29.76,10.0,South,18.4,24.2,N/A,,Clear,180,2012-10-17 16:53:00
12:53 PM,80.1,61.0,52,29.74,10.0,South,13.8,20.7,N/A,,Partly Cloudy,190,2012-10-17 17:53:00
1:53 PM,81.0,62.1,52,29.70,10.0,South,21.9,25.3,N/A,,Scattered Clouds,180,2012-10-17 18:53:00
2:53 PM,81.0,62.1,52,29.68,10.0,SSW,17.3,26.5,N/A,,Mostly Cloudy,200,2012-10-17 19:53:00
3:53 PM,80.1,63.0,56,29.65,10.0,South,11.5,-,N/A,,Mostly Cloudy,190,2012-10-17 20:53:00
4:53 PM,79.0,63.0,58,29.65,10.0,South,10.4,-,N/A,,Overcast,180,2012-10-17 21:53:00
5:53 PM,77.0,64.4,65,29.64,10.0,SSE,10.4,-,N/A,,Partly Cloudy,160,2012-10-17 22:53:00
6:53 PM,73.9,64.0,71,29.62,10.0,SSE,12.7,-,N/A,,Clear,160,2012-10-17 23:53:00
7:53 PM,73.0,64.9,76,29.62,10.0,South,12.7,-,N/A,,Clear,170,2012-10-18 00:53:00
8:53 PM,73.9,64.9,73,29.58,10.0,South,19.6,27.6,N/A,,Mostly Cloudy,170,2012-10-18 01:53:00
9:53 PM,73.9,64.9,73,29.57,10.0,South,24.2,31.1,N/A,,Clear,180,2012-10-18 02:53:00
10:54 PM,71.1,68.0,90,29.63,-9999.0,SW,21.9,34.5,0.05,Rain,Light Rain,220,2012-10-18 03:54:00
11:53 PM,69.1,66.9,93,29.66,10.0,SSW,9.2,-,0.04,,Mostly Cloudy,210,2012-10-18 04:53:00